{"data":{"norad_id":66348,"epoch":"2026-05-24T23:44:04.503264Z","epoch_age_seconds":73016,"freshness":"FRESH","line1":"1 66348U 25254A   26144.98894101  .00011295  00000+0  39283-3 0  9997","line2":"2 66348  53.1583 238.3198 0001309  91.4874 268.6276 15.30206693 31819","mean_motion":15.30206693,"eccentricity":0.0001309,"inclination_deg":53.1583,"raan_deg":238.3198,"arg_perigee_deg":91.4874,"mean_anomaly_deg":268.6276,"bstar":0.00039283,"rev_number":3181,"period_min":94.104934097292,"perigee_km":474.29798423061,"apogee_km":476.09218657056,"semimajor_km":6853.3320854006,"source":"CELESTRAK","updated_at":"2026-05-25T13:38:21.173100Z"}}